Time,TemperatureF,DewpointF,PressureIn,WindDirection,WindDirectionDegrees,WindSpeedMPH,WindSpeedGustMPH,Humidity,HourlyPrecipIn,Conditions,Clouds,dailyrainin,SoftwareType,DateUTC
2013-10-31 00:03:00,49.1,46.3,29.68,North,355,0.0,0.0,90,0.00,OVC,,0.00,WeatherDisplay:10.37,2013-10-31 05:03:00,
2013-10-31 00:08:00,49.1,46.3,29.68,North,355,0.0,0.0,90,0.00,OVC,,0.00,WeatherDisplay:10.37,2013-10-31 05:08:00,
2013-10-31 00:13:00,49.1,46.3,29.68,North,355,0.0,0.0,90,0.00,OVC,,0.00,WeatherDisplay:10.37,2013-10-31 05:13:00,
2013-10-31 00:18:00,49.1,46.3,29.68,North,355,0.0,0.0,90,0.00,OVC,,0.00,WeatherDisplay:10.37,2013-10-31 05:18:00,
2013-10-31 00:23:00,48.9,46.1,29.68,North,355,0.0,0.0,90,0.00,OVC,,0.00,WeatherDisplay:10.37,2013-10-31 05:23:00,
2013-10-31 00:28:00,48.9,46.1,29.68,North,355,0.0,0.0,90,0.00,OVC,,0.00,WeatherDisplay:10.37,2013-10-31 05:28:00,
2013-10-31 00:33:00,48.9,46.1,29.68,North,355,0.0,0.0,90,0.00,OVC,,0.00,WeatherDisplay:10.37,2013-10-31 05:33:00,
2013-10-31 00:38:00,48.9,46.1,29.68,North,355,0.0,0.0,90,0.00,OVC,,0.00,WeatherDisplay:10.37,2013-10-31 05:38:00,
2013-10-31 00:43:00,48.9,46.1,29.68,North,355,0.0,0.0,90,0.00,OVC,,0.00,WeatherDisplay:10.37,2013-10-31 05:43:00,
2013-10-31 00:48:00,48.9,46.1,29.68,North,355,0.0,0.0,90,0.00,OVC,,0.00,WeatherDisplay:10.37,2013-10-31 05:48:00,
2013-10-31 00:53:00,48.9,46.1,29.68,North,355,0.0,0.0,90,0.00,OVC,,0.00,WeatherDisplay:10.37,2013-10-31 05:53:00,
2013-10-31 00:58:00,48.7,45.9,29.68,North,355,0.0,0.0,90,0.01,RA,,0.01,WeatherDisplay:10.37,2013-10-31 05:58:00,
2013-10-31 01:03:00,48.7,45.9,29.68,North,355,0.0,0.0,90,0.01,RA,,0.01,WeatherDisplay:10.37,2013-10-31 06:03:00,
2013-10-31 01:08:00,48.7,45.9,29.68,North,355,0.0,0.0,90,0.01,OVC,,0.01,WeatherDisplay:10.37,2013-10-31 06:08:00,
2013-10-31 01:13:00,48.6,45.8,29.65,North,355,0.0,0.0,90,0.01,OVC,,0.01,WeatherDisplay:10.37,2013-10-31 06:13:00,
2013-10-31 01:18:00,48.6,45.8,29.65,North,355,0.0,0.0,90,0.01,OVC,,0.01,WeatherDisplay:10.37,2013-10-31 06:18:00,
2013-10-31 01:23:00,48.6,45.8,29.65,North,355,0.0,0.0,90,0.01,OVC,,0.01,WeatherDisplay:10.37,2013-10-31 06:23:00,
2013-10-31 01:28:00,48.6,45.8,29.65,NNW,340,2.3,2.3,90,0.01,OVC,,0.01,WeatherDisplay:10.37,2013-10-31 06:28:00,
2013-10-31 01:33:00,48.4,45.6,29.65,West,280,2.3,2.3,90,0.01,OVC,,0.01,WeatherDisplay:10.37,2013-10-31 06:33:00,
2013-10-31 01:39:00,48.4,45.6,29.65,West,275,0.0,1.0,90,0.01,OVC,,0.01,WeatherDisplay:10.37,2013-10-31 06:39:00,
2013-10-31 01:44:00,48.2,45.4,29.65,West,275,0.0,1.4,90,0.01,OVC,,0.01,WeatherDisplay:10.37,2013-10-31 06:44:00,
2013-10-31 01:49:00,48.2,45.4,29.65,West,275,0.0,1.4,90,0.01,CLR,,0.01,WeatherDisplay:10.37,2013-10-31 06:49:00,
2013-10-31 01:54:00,48.2,45.4,29.65,West,280,0.0,0.8,90,0.01,RA,,0.03,WeatherDisplay:10.37,2013-10-31 06:54:00,
2013-10-31 01:59:00,48.2,45.7,29.65,West,270,0.0,0.3,91,0.01,RA,,0.03,WeatherDisplay:10.37,2013-10-31 06:59:00,
2013-10-31 02:04:00,48.2,45.7,29.65,WNW,285,3.5,3.5,91,0.01,CLR,,0.03,WeatherDisplay:10.37,2013-10-31 07:04:00,
2013-10-31 02:09:00,48.0,45.8,29.65,West,275,2.3,2.3,92,0.01,CLR,,0.03,WeatherDisplay:10.37,2013-10-31 07:09:00,
2013-10-31 02:14:00,48.2,45.7,29.65,WSW,255,3.5,3.5,91,0.01,CLR,,0.03,WeatherDisplay:10.37,2013-10-31 07:14:00,
2013-10-31 02:19:00,48.0,45.8,29.65,WNW,285,5.8,5.8,92,0.01,CLR,,0.03,WeatherDisplay:10.37,2013-10-31 07:19:00,
2013-10-31 02:24:00,48.0,45.8,29.65,West,265,4.6,4.6,92,0.01,CLR,,0.03,WeatherDisplay:10.37,2013-10-31 07:24:00,
2013-10-31 02:29:00,48.0,45.8,29.65,West,275,0.0,3.6,92,0.01,CLR,,0.03,WeatherDisplay:10.37,2013-10-31 07:29:00,
2013-10-31 02:34:00,47.8,45.6,29.65,WNW,285,3.5,3.5,92,0.01,CLR,,0.03,WeatherDisplay:10.37,2013-10-31 07:34:00,
2013-10-31 02:39:00,47.7,45.5,29.65,West,260,3.5,3.6,92,0.01,CLR,,0.03,WeatherDisplay:10.37,2013-10-31 07:39:00,
2013-10-31 02:44:00,47.7,45.5,29.65,WSW,250,0.0,3.5,92,0.01,CLR,,0.03,WeatherDisplay:10.37,2013-10-31 07:44:00,
2013-10-31 02:49:00,47.7,45.5,29.65,WSW,240,3.5,3.5,92,0.00,CLR,,0.03,WeatherDisplay:10.37,2013-10-31 07:49:00,
2013-10-31 02:54:00,47.7,45.5,29.65,SW,230,3.5,3.5,92,0.00,CLR,,0.03,WeatherDisplay:10.37,2013-10-31 07:54:00,
2013-10-31 02:59:00,47.7,45.7,29.65,SW,225,1.1,2.4,93,0.00,CLR,,0.03,WeatherDisplay:10.37,2013-10-31 07:59:00,
2013-10-31 03:05:00,47.5,45.6,29.65,WSW,250,4.6,4.6,93,0.00,CLR,,0.03,WeatherDisplay:10.37,2013-10-31 08:05:00,
2013-10-31 03:10:00,47.5,45.6,29.65,West,275,3.5,3.6,93,0.00,CLR,,0.03,WeatherDisplay:10.37,2013-10-31 08:10:00,
2013-10-31 03:15:00,47.5,45.6,29.62,West,260,10.4,10.4,93,0.01,RA,,0.04,WeatherDisplay:10.37,2013-10-31 08:15:00,
2013-10-31 03:20:00,47.3,45.4,29.62,SW,225,0.0,5.8,93,0.01,CLR,,0.04,WeatherDisplay:10.37,2013-10-31 08:20:00,
2013-10-31 03:25:00,47.3,45.4,29.62,West,260,8.1,8.1,93,0.01,CLR,,0.04,WeatherDisplay:10.37,2013-10-31 08:25:00,
2013-10-31 03:30:00,47.1,45.2,29.62,West,262,7.0,11.0,93,0.00,,,0.04,WeatherDisplay:10.37,2013-10-31 08:30:00,
2013-10-31 03:35:00,47.1,45.2,29.62,WSW,255,10.4,10.4,93,0.01,CLR,,0.04,WeatherDisplay:10.37,2013-10-31 08:35:00,
2013-10-31 03:40:00,47.1,45.2,29.62,WSW,255,10.4,10.4,93,0.01,CLR,,0.04,WeatherDisplay:10.37,2013-10-31 08:40:00,
2013-10-31 03:45:00,47.1,45.2,29.62,WSW,255,10.4,10.4,93,0.01,CLR,,0.04,WeatherDisplay:10.37,2013-10-31 08:45:00,
2013-10-31 03:50:00,47.1,45.2,29.62,WSW,255,10.4,10.4,93,0.01,OVC,,0.04,WeatherDisplay:10.37,2013-10-31 08:50:00,
2013-10-31 03:55:00,47.1,45.2,29.62,WSW,255,10.4,10.4,93,0.01,OVC,,0.04,WeatherDisplay:10.37,2013-10-31 08:55:00,
2013-10-31 04:00:00,47.1,45.2,29.62,WSW,255,10.4,10.4,93,0.01,OVC,,0.04,WeatherDisplay:10.37,2013-10-31 09:00:00,
2013-10-31 04:05:00,46.0,44.4,29.62,WSW,240,5.8,8.3,94,0.01,OVC,,0.04,WeatherDisplay:10.37,2013-10-31 09:05:00,
2013-10-31 04:10:00,46.0,44.4,29.62,WSW,245,6.9,9.5,94,0.00,OVC,,0.04,WeatherDisplay:10.37,2013-10-31 09:10:00,
2013-10-31 04:15:00,45.9,44.0,29.62,WSW,255,1.1,8.7,93,0.00,OVC,,0.04,WeatherDisplay:10.37,2013-10-31 09:15:00,
2013-10-31 04:20:00,45.5,43.9,29.59,WSW,240,4.6,5.6,94,0.00,OVC,,0.04,WeatherDisplay:10.37,2013-10-31 09:20:00,
2013-10-31 04:25:00,45.5,43.9,29.59,SW,230,5.8,5.8,94,0.00,OVC,,0.04,WeatherDisplay:10.37,2013-10-31 09:25:00,
2013-10-31 04:30:00,45.3,43.7,29.59,West,265,5.8,5.8,94,0.00,OVC,,0.04,WeatherDisplay:10.37,2013-10-31 09:30:00,
2013-10-31 04:35:00,45.3,43.7,29.59,WSW,245,4.6,4.6,94,0.00,OVC,,0.04,WeatherDisplay:10.37,2013-10-31 09:35:00,
2013-10-31 04:40:00,45.1,43.5,29.59,WSW,240,5.8,5.8,94,0.00,OVC,,0.04,WeatherDisplay:10.37,2013-10-31 09:40:00,
2013-10-31 04:45:00,45.0,43.3,29.59,SW,225,1.1,5.2,94,0.00,OVC,,0.04,WeatherDisplay:10.37,2013-10-31 09:45:00,
2013-10-31 04:51:00,45.0,43.1,29.59,WSW,245,9.2,9.2,93,0.00,OVC,,0.04,WeatherDisplay:10.37,2013-10-31 09:51:00,
2013-10-31 04:56:00,45.0,43.3,29.59,SW,235,4.6,5.1,94,0.00,OVC,,0.04,WeatherDisplay:10.37,2013-10-31 09:56:00,
2013-10-31 05:01:00,44.8,43.2,29.59,West,280,6.9,6.9,94,0.00,OVC,,0.04,WeatherDisplay:10.37,2013-10-31 10:01:00,
2013-10-31 05:06:00,44.8,43.2,29.59,West,280,6.9,6.9,94,0.00,OVC,,0.04,WeatherDisplay:10.37,2013-10-31 10:06:00,
2013-10-31 05:11:00,44.6,43.0,29.59,West,265,6.9,6.9,94,0.00,OVC,,0.04,WeatherDisplay:10.37,2013-10-31 10:11:00,
2013-10-31 05:16:00,44.6,43.0,29.59,West,275,8.1,8.1,94,0.00,OVC,,0.04,WeatherDisplay:10.37,2013-10-31 10:16:00,
2013-10-31 05:21:00,44.4,43.1,29.59,West,265,2.5,6.4,95,0.00,OVC,,0.04,WeatherDisplay:10.37,2013-10-31 10:21:00,
2013-10-31 05:26:00,44.4,43.1,29.59,WSW,240,5.8,6.3,95,0.00,OVC,,0.04,WeatherDisplay:10.37,2013-10-31 10:26:00,
2013-10-31 05:31:00,44.4,43.1,29.59,WSW,250,6.9,6.9,95,0.00,OVC,,0.04,WeatherDisplay:10.37,2013-10-31 10:31:00,
2013-10-31 05:36:00,44.2,42.9,29.59,SW,230,8.1,8.1,95,0.00,OVC,,0.04,WeatherDisplay:10.37,2013-10-31 10:36:00,
2013-10-31 05:41:00,44.2,42.9,29.59,SW,225,6.9,7.5,95,0.00,OVC,,0.04,WeatherDisplay:10.37,2013-10-31 10:41:00,
2013-10-31 05:46:00,44.2,42.9,29.59,SW,215,5.8,7.5,95,0.00,OVC,,0.04,WeatherDisplay:10.37,2013-10-31 10:46:00,
2013-10-31 05:51:00,44.2,42.9,29.59,SW,225,6.9,6.9,95,0.00,OVC,,0.04,WeatherDisplay:10.37,2013-10-31 10:51:00,
2013-10-31 05:56:00,44.1,42.7,29.62,SW,220,8.1,8.1,95,0.00,OVC,,0.04,WeatherDisplay:10.37,2013-10-31 10:56:00,
2013-10-31 06:01:00,44.1,42.7,29.62,SW,230,10.4,10.4,95,0.00,OVC,,0.04,WeatherDisplay:10.37,2013-10-31 11:01:00,
2013-10-31 06:06:00,43.9,42.5,29.59,SW,235,8.1,8.1,95,0.00,OVC,,0.04,WeatherDisplay:10.37,2013-10-31 11:06:00,
2013-10-31 06:11:00,43.9,42.5,29.62,SW,235,8.1,8.1,95,0.00,OVC,,0.04,WeatherDisplay:10.37,2013-10-31 11:11:00,
2013-10-31 06:16:00,43.9,42.5,29.62,SW,225,8.1,8.1,95,0.00,OVC,,0.04,WeatherDisplay:10.37,2013-10-31 11:16:00,
2013-10-31 06:22:00,43.7,42.4,29.62,WSW,240,10.4,10.4,95,0.00,OVC,,0.04,WeatherDisplay:10.37,2013-10-31 11:22:00,
2013-10-31 06:27:00,43.5,42.2,29.62,WSW,250,11.5,11.5,95,0.00,OVC,,0.04,WeatherDisplay:10.37,2013-10-31 11:27:00,
2013-10-31 06:32:00,43.3,42.0,29.59,WSW,245,8.1,9.5,95,0.00,OVC,,0.04,WeatherDisplay:10.37,2013-10-31 11:32:00,
2013-10-31 06:37:00,43.3,42.0,29.59,WNW,285,8.1,9.3,95,0.00,OVC,,0.04,WeatherDisplay:10.37,2013-10-31 11:37:00,
2013-10-31 06:42:00,43.3,42.0,29.59,WNW,285,2.3,8.2,95,0.00,OVC,,0.04,WeatherDisplay:10.37,2013-10-31 11:42:00,
2013-10-31 06:47:00,43.3,42.0,29.59,WNW,285,0.0,5.1,95,0.00,OVC,,0.04,WeatherDisplay:10.37,2013-10-31 11:47:00,
2013-10-31 06:52:00,43.3,42.0,29.59,WNW,285,3.5,3.5,95,0.00,OVC,,0.04,WeatherDisplay:10.37,2013-10-31 11:52:00,
2013-10-31 06:57:00,43.0,41.6,29.56,WNW,295,3.5,3.5,95,0.00,OVC,,0.04,WeatherDisplay:10.37,2013-10-31 11:57:00,
2013-10-31 07:02:00,43.0,41.6,29.56,WNW,295,0.0,1.5,95,0.00,OVC,,0.04,WeatherDisplay:10.37,2013-10-31 12:02:00,
2013-10-31 07:07:00,43.0,41.6,29.56,WNW,295,0.0,1.4,95,0.00,OVC,,0.04,WeatherDisplay:10.37,2013-10-31 12:07:00,
2013-10-31 07:12:00,43.0,41.6,29.56,WNW,295,0.0,1.4,95,0.00,OVC,,0.04,WeatherDisplay:10.37,2013-10-31 12:12:00,
2013-10-31 07:17:00,43.2,41.8,29.56,WNW,300,0.0,0.5,95,0.00,OVC,,0.04,WeatherDisplay:10.37,2013-10-31 12:17:00,
2013-10-31 07:22:00,43.2,41.8,29.56,WNW,300,3.5,3.5,95,0.00,OVC,,0.04,WeatherDisplay:10.37,2013-10-31 12:22:00,
2013-10-31 07:27:00,43.2,41.8,29.56,WNW,300,0.0,0.5,95,0.00,OVC,,0.04,WeatherDisplay:10.37,2013-10-31 12:27:00,
2013-10-31 07:32:00,43.2,41.8,29.56,West,275,4.6,4.6,95,0.00,OVC,,0.04,WeatherDisplay:10.37,2013-10-31 12:32:00,
2013-10-31 07:37:00,43.0,41.6,29.56,SSW,205,4.6,4.6,95,0.00,OVC,,0.04,WeatherDisplay:10.37,2013-10-31 12:37:00,
2013-10-31 07:42:00,42.8,41.5,29.59,SSW,210,5.8,5.8,95,0.00,OVC,,0.04,WeatherDisplay:10.37,2013-10-31 12:42:00,
2013-10-31 07:47:00,42.8,41.5,29.59,SSW,210,5.8,5.8,95,0.00,OVC,,0.04,WeatherDisplay:10.37,2013-10-31 12:47:00,
2013-10-31 07:52:00,42.8,41.5,29.59,SSW,210,9.2,9.2,95,0.00,OVC,,0.04,WeatherDisplay:10.37,2013-10-31 12:52:00,
2013-10-31 07:57:00,42.4,41.1,29.56,SW,220,11.5,11.5,95,0.00,OVC,,0.04,WeatherDisplay:10.37,2013-10-31 12:57:00,
2013-10-31 08:02:00,42.3,40.9,29.56,SW,220,11.5,11.5,95,0.00,OVC,,0.04,WeatherDisplay:10.37,2013-10-31 13:02:00,
2013-10-31 08:07:00,42.1,40.8,29.56,SW,235,5.8,10.1,95,0.00,OVC,,0.04,WeatherDisplay:10.37,2013-10-31 13:07:00,
2013-10-31 08:12:00,41.9,40.6,29.56,SSW,205,6.9,9.6,95,0.00,OVC,,0.04,WeatherDisplay:10.37,2013-10-31 13:12:00,
2013-10-31 08:17:00,42.1,40.8,29.56,SW,225,9.2,9.2,95,0.00,OVC,,0.04,WeatherDisplay:10.37,2013-10-31 13:17:00,
2013-10-31 08:22:00,41.9,40.6,29.56,SW,235,6.9,8.3,95,0.00,OVC,,0.04,WeatherDisplay:10.37,2013-10-31 13:22:00,
2013-10-31 08:28:00,41.5,40.2,29.56,WSW,250,8.1,8.1,95,0.00,OVC,,0.04,WeatherDisplay:10.37,2013-10-31 13:28:00,
2013-10-31 08:33:00,41.4,40.0,29.56,WSW,240,10.4,10.4,95,0.00,OVC,,0.04,WeatherDisplay:10.37,2013-10-31 13:33:00,
2013-10-31 08:38:00,41.2,39.9,29.56,SW,230,11.5,11.5,95,0.00,OVC,,0.04,WeatherDisplay:10.37,2013-10-31 13:38:00,
2013-10-31 08:43:00,41.4,40.0,29.56,SW,230,9.2,10.3,95,0.00,OVC,,0.04,WeatherDisplay:10.37,2013-10-31 13:43:00,
2013-10-31 08:48:00,41.4,40.0,29.56,WSW,240,11.5,11.5,95,0.00,OVC,,0.04,WeatherDisplay:10.37,2013-10-31 13:48:00,
2013-10-31 08:53:00,41.2,39.9,29.59,WSW,245,8.1,11.6,95,0.00,OVC,,0.04,WeatherDisplay:10.37,2013-10-31 13:53:00,
2013-10-31 08:58:00,41.2,39.9,29.59,SW,220,6.9,10.4,95,0.00,OVC,,0.04,WeatherDisplay:10.37,2013-10-31 13:58:00,
2013-10-31 09:03:00,41.4,40.0,29.59,SW,220,6.9,8.9,95,0.00,OVC,,0.04,WeatherDisplay:10.37,2013-10-31 14:03:00,
2013-10-31 09:08:00,41.4,40.0,29.59,SW,225,6.9,8.3,95,0.00,OVC,,0.04,WeatherDisplay:10.37,2013-10-31 14:08:00,
2013-10-31 09:13:00,41.4,40.0,29.59,WSW,240,13.8,13.8,95,0.00,OVC,,0.04,WeatherDisplay:10.37,2013-10-31 14:13:00,
2013-10-31 09:18:00,41.0,39.7,29.59,WSW,240,9.2,9.4,95,0.00,OVC,,0.04,WeatherDisplay:10.37,2013-10-31 14:18:00,
2013-10-31 09:23:00,41.0,39.7,29.59,WSW,240,9.2,9.9,95,0.00,OVC,,0.04,WeatherDisplay:10.37,2013-10-31 14:23:00,
2013-10-31 09:28:00,41.0,39.7,29.56,West,260,8.1,9.7,95,0.00,OVC,,0.04,WeatherDisplay:10.37,2013-10-31 14:28:00,
2013-10-31 09:33:00,41.0,39.7,29.56,West,275,10.4,10.4,95,0.00,OVC,,0.04,WeatherDisplay:10.37,2013-10-31 14:33:00,
2013-10-31 09:38:00,41.0,39.7,29.56,WSW,245,6.9,7.9,95,0.00,OVC,,0.04,WeatherDisplay:10.37,2013-10-31 14:38:00,
2013-10-31 09:43:00,41.0,39.7,29.56,WSW,245,10.4,10.4,95,0.00,OVC,,0.04,WeatherDisplay:10.37,2013-10-31 14:43:00,
2013-10-31 09:48:00,41.0,39.7,29.56,West,265,9.2,9.2,95,0.00,OVC,,0.04,WeatherDisplay:10.37,2013-10-31 14:48:00,
2013-10-31 09:53:00,41.0,39.4,29.56,SW,230,6.9,8.6,94,0.00,OVC,,0.04,WeatherDisplay:10.37,2013-10-31 14:53:00,
2013-10-31 09:58:00,41.2,39.6,29.56,WSW,240,6.9,8.5,94,0.00,OVC,,0.04,WeatherDisplay:10.37,2013-10-31 14:58:00,
2013-10-31 10:03:00,41.0,39.4,29.56,West,260,5.8,8.2,94,0.00,OVC,,0.04,WeatherDisplay:10.37,2013-10-31 15:03:00,
2013-10-31 10:08:00,41.2,39.6,29.56,SW,235,6.9,7.5,94,0.00,OVC,,0.04,WeatherDisplay:10.37,2013-10-31 15:08:00,
2013-10-31 10:13:00,41.2,39.6,29.56,SW,230,8.1,8.1,94,0.00,OVC,,0.04,WeatherDisplay:10.37,2013-10-31 15:13:00,
2013-10-31 10:18:00,41.2,39.6,29.56,SW,230,8.3,8.3,94,0.00,OVC,,0.04,WeatherDisplay:10.37,2013-10-31 15:18:00,
2013-10-31 10:23:00,41.2,39.6,29.56,WSW,240,8.1,8.1,94,0.00,OVC,,0.04,WeatherDisplay:10.37,2013-10-31 15:23:00,
2013-10-31 10:28:00,41.4,39.8,29.56,WSW,240,3.5,7.1,94,0.00,OVC,,0.04,WeatherDisplay:10.37,2013-10-31 15:28:00,
2013-10-31 10:34:00,41.4,39.8,29.56,WSW,240,9.2,9.2,94,0.00,OVC,,0.04,WeatherDisplay:10.37,2013-10-31 15:34:00,
2013-10-31 10:39:00,41.2,39.6,29.56,WSW,245,3.5,7.4,94,0.00,OVC,,0.04,WeatherDisplay:10.37,2013-10-31 15:39:00,
2013-10-31 10:44:00,41.2,39.3,29.56,SW,230,9.2,9.2,93,0.00,OVC,,0.04,WeatherDisplay:10.37,2013-10-31 15:44:00,
2013-10-31 10:49:00,41.2,39.3,29.56,WSW,245,11.5,11.5,93,0.00,OVC,,0.04,WeatherDisplay:10.37,2013-10-31 15:49:00,
2013-10-31 10:54:00,41.2,39.3,29.53,WSW,240,6.9,7.7,93,0.00,OVC,,0.04,WeatherDisplay:10.37,2013-10-31 15:54:00,
2013-10-31 10:59:00,41.2,39.3,29.53,SW,225,8.1,8.1,93,0.00,OVC,,0.04,WeatherDisplay:10.37,2013-10-31 15:59:00,
2013-10-31 11:04:00,41.2,39.3,29.56,SW,220,8.1,8.3,93,0.00,OVC,,0.04,WeatherDisplay:10.37,2013-10-31 16:04:00,
2013-10-31 11:09:00,41.0,39.1,29.56,SW,215,10.4,10.4,93,0.00,OVC,,0.04,WeatherDisplay:10.37,2013-10-31 16:09:00,
2013-10-31 11:14:00,41.0,38.9,29.53,SW,230,9.2,9.2,92,0.00,OVC,,0.04,WeatherDisplay:10.37,2013-10-31 16:14:00,
2013-10-31 11:19:00,41.2,39.0,29.53,WSW,240,8.1,8.9,92,0.00,OVC,,0.04,WeatherDisplay:10.37,2013-10-31 16:19:00,
2013-10-31 11:24:00,41.2,39.0,29.53,WSW,240,6.9,8.9,92,0.00,OVC,,0.04,WeatherDisplay:10.37,2013-10-31 16:24:00,
2013-10-31 11:29:00,41.4,38.9,29.53,SW,236,8.0,10.0,91,0.00,OVC,,0.04,WeatherDisplay:10.37,2013-10-31 16:29:00,
2013-10-31 11:34:00,41.4,38.9,29.53,SW,230,9.2,9.2,91,0.00,OVC,,0.04,WeatherDisplay:10.37,2013-10-31 16:34:00,
2013-10-31 11:39:00,41.4,38.9,29.53,SSW,210,8.1,8.2,91,0.00,OVC,,0.04,WeatherDisplay:10.37,2013-10-31 16:39:00,
2013-10-31 11:44:00,41.4,38.9,29.53,SW,215,9.2,9.2,91,0.00,OVC,,0.04,WeatherDisplay:10.37,2013-10-31 16:44:00,
2013-10-31 11:49:00,41.0,38.3,29.53,SW,230,6.9,8.6,90,0.00,OVC,,0.04,WeatherDisplay:10.37,2013-10-31 16:49:00,
2013-10-31 11:54:00,41.2,38.2,29.53,SW,220,4.6,7.9,89,0.00,OVC,,0.04,WeatherDisplay:10.37,2013-10-31 16:54:00,
2013-10-31 11:59:00,41.4,38.4,29.53,SSW,210,4.6,7.2,89,0.00,OVC,,0.04,WeatherDisplay:10.37,2013-10-31 16:59:00,
2013-10-31 12:04:00,41.4,38.4,29.53,WSW,240,5.8,6.4,89,0.00,OVC,,0.04,WeatherDisplay:10.37,2013-10-31 17:04:00,
2013-10-31 12:09:00,41.0,37.7,29.53,WSW,240,8.1,8.1,88,0.00,OVC,,0.04,WeatherDisplay:10.37,2013-10-31 17:09:00,
2013-10-31 12:14:00,41.2,37.9,29.53,WSW,240,9.2,9.2,88,0.00,OVC,,0.04,WeatherDisplay:10.37,2013-10-31 17:14:00,
2013-10-31 12:19:00,41.0,37.4,29.53,SW,230,12.7,12.7,87,0.00,OVC,,0.04,WeatherDisplay:10.37,2013-10-31 17:19:00,
2013-10-31 12:24:00,41.2,37.6,29.53,West,265,9.2,9.3,87,0.00,OVC,,0.04,WeatherDisplay:10.37,2013-10-31 17:24:00,
2013-10-31 12:29:00,41.0,37.4,29.53,WSW,240,9.2,9.9,87,0.00,OVC,,0.04,WeatherDisplay:10.37,2013-10-31 17:29:00,
2013-10-31 12:34:00,41.4,37.8,29.50,SW,230,11.5,11.5,87,0.00,OVC,,0.04,WeatherDisplay:10.37,2013-10-31 17:34:00,
2013-10-31 12:39:00,41.4,37.8,29.50,SW,230,10.4,10.5,87,0.00,OVC,,0.04,WeatherDisplay:10.37,2013-10-31 17:39:00,
2013-10-31 12:45:00,41.4,37.8,29.50,SW,235,10.4,10.8,87,0.00,OVC,,0.04,WeatherDisplay:10.37,2013-10-31 17:45:00,
2013-10-31 12:50:00,41.2,37.0,29.50,SW,220,10.4,11.0,85,0.00,OVC,,0.04,WeatherDisplay:10.37,2013-10-31 17:50:00,
2013-10-31 12:55:00,41.5,37.1,29.50,SW,235,8.3,10.5,84,0.00,OVC,,0.04,WeatherDisplay:10.37,2013-10-31 17:55:00,
2013-10-31 13:00:00,41.4,36.9,29.50,SW,225,8.1,10.1,84,0.00,OVC,,0.04,WeatherDisplay:10.37,2013-10-31 18:00:00,
2013-10-31 13:05:00,41.9,37.1,29.50,WSW,240,11.5,11.5,83,0.00,OVC,,0.04,WeatherDisplay:10.37,2013-10-31 18:05:00,
2013-10-31 13:10:00,41.5,36.5,29.50,WSW,250,8.1,8.7,82,0.00,OVC,,0.04,WeatherDisplay:10.37,2013-10-31 18:10:00,
2013-10-31 13:15:00,41.5,36.5,29.50,WSW,250,8.1,9.2,82,0.00,OVC,,0.04,WeatherDisplay:10.37,2013-10-31 18:15:00,
2013-10-31 13:20:00,42.1,36.0,29.50,West,260,10.4,10.4,79,0.00,OVC,,0.04,WeatherDisplay:10.37,2013-10-31 18:20:00,
2013-10-31 13:25:00,41.9,35.2,29.47,SW,215,10.4,10.4,77,0.00,OVC,,0.04,WeatherDisplay:10.37,2013-10-31 18:25:00,
2013-10-31 13:30:00,41.9,35.2,29.47,SW,215,10.4,10.4,77,0.00,OVC,,0.04,WeatherDisplay:10.37,2013-10-31 18:30:00,
2013-10-31 13:35:00,42.1,34.7,29.47,WSW,245,10.4,10.4,75,0.00,OVC,,0.04,WeatherDisplay:10.37,2013-10-31 18:35:00,
2013-10-31 13:40:00,41.9,33.9,29.47,SW,230,10.4,10.4,73,0.00,OVC,,0.04,WeatherDisplay:10.37,2013-10-31 18:40:00,
2013-10-31 13:45:00,41.7,33.4,29.47,SW,220,8.1,9.8,72,0.00,OVC,,0.04,WeatherDisplay:10.37,2013-10-31 18:45:00,
2013-10-31 13:50:00,41.7,32.7,29.47,SSW,210,10.4,10.4,70,0.00,OVC,,0.04,WeatherDisplay:10.37,2013-10-31 18:50:00,
2013-10-31 13:55:00,41.7,32.3,29.47,WSW,240,10.4,10.4,69,0.00,OVC,,0.04,WeatherDisplay:10.37,2013-10-31 18:55:00,
2013-10-31 14:00:00,41.9,32.1,29.47,SW,235,12.7,12.7,68,0.00,OVC,,0.04,WeatherDisplay:10.37,2013-10-31 19:00:00,
2013-10-31 14:05:00,42.1,32.3,29.47,SW,220,6.9,9.7,68,0.00,OVC,,0.04,WeatherDisplay:10.37,2013-10-31 19:05:00,
2013-10-31 14:10:00,42.1,31.9,29.47,WSW,245,6.9,9.7,67,0.00,OVC,,0.04,WeatherDisplay:10.37,2013-10-31 19:10:00,
2013-10-31 14:15:00,41.9,31.4,29.47,SW,225,9.2,9.2,66,0.00,OVC,,0.04,WeatherDisplay:10.37,2013-10-31 19:15:00,
2013-10-31 14:20:00,41.9,31.0,29.47,SW,235,8.1,8.5,65,0.00,OVC,,0.04,WeatherDisplay:10.37,2013-10-31 19:20:00,
2013-10-31 14:25:00,41.7,30.8,29.47,WSW,240,11.5,11.5,65,0.00,OVC,,0.04,WeatherDisplay:10.37,2013-10-31 19:25:00,
2013-10-31 14:30:00,41.5,30.3,29.47,WSW,240,9.2,9.3,64,0.00,OVC,,0.04,WeatherDisplay:10.37,2013-10-31 19:30:00,
2013-10-31 14:35:00,41.5,30.3,29.44,WSW,240,9.2,9.6,64,0.00,OVC,,0.04,WeatherDisplay:10.37,2013-10-31 19:35:00,
2013-10-31 14:40:00,41.5,30.3,29.44,WSW,245,9.2,10.5,64,0.00,OVC,,0.04,WeatherDisplay:10.37,2013-10-31 19:40:00,
2013-10-31 14:45:00,41.5,30.6,29.44,WSW,245,8.1,10.3,65,0.00,OVC,,0.04,WeatherDisplay:10.37,2013-10-31 19:45:00,
2013-10-31 14:51:00,41.4,30.5,29.44,WSW,240,6.9,9.7,65,0.00,OVC,,0.04,WeatherDisplay:10.37,2013-10-31 19:51:00,
2013-10-31 14:54:00,41.5,30.6,29.44,SW,230,9.2,9.4,65,0.00,OVC,,0.04,WeatherDisplay:10.37,2013-10-31 19:54:00,
2013-10-31 14:59:00,41.5,30.6,29.44,SW,235,6.9,9.0,65,0.00,OVC,,0.04,WeatherDisplay:10.37,2013-10-31 19:59:00,
2013-10-31 15:04:00,40.8,30.0,29.44,SW,230,13.8,13.8,65,0.00,OVC,,0.04,WeatherDisplay:10.37,2013-10-31 20:04:00,
2013-10-31 15:09:00,41.0,30.1,29.44,SW,235,15.0,15.0,65,0.00,OVC,,0.04,WeatherDisplay:10.37,2013-10-31 20:09:00,
2013-10-31 15:14:00,41.2,30.3,29.44,SW,235,12.7,12.7,65,0.00,OVC,,0.04,WeatherDisplay:10.37,2013-10-31 20:14:00,
2013-10-31 15:19:00,41.2,30.7,29.44,WSW,240,8.1,11.7,66,0.00,OVC,,0.04,WeatherDisplay:10.37,2013-10-31 20:19:00,
2013-10-31 15:24:00,41.2,30.7,29.44,WSW,250,11.5,11.5,66,0.00,OVC,,0.04,WeatherDisplay:10.37,2013-10-31 20:24:00,
2013-10-31 15:29:00,41.0,30.5,29.44,SW,235,11.5,11.5,66,0.00,OVC,,0.04,WeatherDisplay:10.37,2013-10-31 20:29:00,
2013-10-31 15:34:00,41.0,30.5,29.44,SW,225,10.4,10.4,66,0.00,OVC,,0.04,WeatherDisplay:10.37,2013-10-31 20:34:00,
2013-10-31 15:40:00,41.0,30.5,29.44,SW,235,11.5,11.5,66,0.00,OVC,,0.04,WeatherDisplay:10.37,2013-10-31 20:40:00,
2013-10-31 15:45:00,41.0,30.5,29.44,WSW,243,12.0,13.0,66,0.00,OVC,,0.04,WeatherDisplay:10.37,2013-10-31 20:45:00,
2013-10-31 15:50:00,41.0,30.5,29.44,WSW,245,9.2,11.7,66,0.00,OVC,,0.04,WeatherDisplay:10.37,2013-10-31 20:50:00,
2013-10-31 15:55:00,41.0,30.5,29.44,West,270,10.4,11.2,66,0.00,OVC,,0.04,WeatherDisplay:10.37,2013-10-31 20:55:00,
2013-10-31 16:00:00,41.0,30.5,29.44,WSW,245,10.4,11.1,66,0.00,OVC,,0.04,WeatherDisplay:10.37,2013-10-31 21:00:00,
2013-10-31 16:05:00,41.0,30.5,29.44,West,275,9.2,11.0,66,0.00,OVC,,0.04,WeatherDisplay:10.37,2013-10-31 21:05:00,
2013-10-31 16:10:00,41.0,30.1,29.44,West,270,9.2,9.5,65,0.00,OVC,,0.04,WeatherDisplay:10.37,2013-10-31 21:10:00,
2013-10-31 16:15:00,41.0,30.1,29.44,WSW,250,8.1,9.5,65,0.00,OVC,,0.04,WeatherDisplay:10.37,2013-10-31 21:15:00,
2013-10-31 16:20:00,41.2,30.3,29.44,West,270,4.6,8.7,65,0.00,OVC,,0.04,WeatherDisplay:10.37,2013-10-31 21:20:00,
2013-10-31 16:25:00,40.8,30.3,29.44,WSW,255,10.4,10.4,66,0.00,OVC,,0.04,WeatherDisplay:10.37,2013-10-31 21:25:00,
2013-10-31 16:30:00,40.8,30.3,29.44,WSW,255,10.4,10.4,66,0.00,OVC,,0.04,WeatherDisplay:10.37,2013-10-31 21:30:00,
2013-10-31 16:35:00,41.0,29.7,29.44,West,265,8.1,8.6,64,0.00,OVC,,0.04,WeatherDisplay:10.37,2013-10-31 21:35:00,
2013-10-31 16:40:00,40.8,30.0,29.44,West,265,8.1,8.6,65,0.00,OVC,,0.04,WeatherDisplay:10.37,2013-10-31 21:40:00,
2013-10-31 16:45:00,41.0,29.7,29.44,WSW,240,9.2,9.2,64,0.00,OVC,,0.04,WeatherDisplay:10.37,2013-10-31 21:45:00,
2013-10-31 16:50:00,41.0,29.7,29.44,WSW,245,8.1,8.5,64,0.00,OVC,,0.04,WeatherDisplay:10.37,2013-10-31 21:50:00,
2013-10-31 16:55:00,40.8,29.6,29.44,West,265,9.2,9.2,64,0.00,OVC,,0.04,WeatherDisplay:10.37,2013-10-31 21:55:00,
2013-10-31 17:01:00,40.8,29.6,29.44,WSW,240,8.1,8.6,64,0.00,OVC,,0.04,WeatherDisplay:10.37,2013-10-31 22:01:00,
2013-10-31 17:06:00,40.8,29.6,29.44,West,270,10.4,10.4,64,0.00,OVC,,0.04,WeatherDisplay:10.37,2013-10-31 22:06:00,
2013-10-31 17:11:00,40.8,29.6,29.44,WSW,255,5.8,9.1,64,0.00,OVC,,0.04,WeatherDisplay:10.37,2013-10-31 22:11:00,
2013-10-31 17:16:00,40.8,29.6,29.44,WNW,300,6.9,8.4,64,0.00,OVC,,0.04,WeatherDisplay:10.37,2013-10-31 22:16:00,
2013-10-31 17:21:00,40.8,29.6,29.44,West,260,9.2,9.2,64,0.00,OVC,,0.04,WeatherDisplay:10.37,2013-10-31 22:21:00,
2013-10-31 17:26:00,40.6,29.4,29.44,WNW,290,8.1,8.1,64,0.00,OVC,,0.04,WeatherDisplay:10.37,2013-10-31 22:26:00,
2013-10-31 17:31:00,40.6,29.4,29.44,WSW,255,6.9,7.4,64,0.00,OVC,,0.04,WeatherDisplay:10.37,2013-10-31 22:31:00,
2013-10-31 17:36:00,40.6,29.4,29.44,West,270,9.2,9.2,64,0.00,OVC,,0.04,WeatherDisplay:10.37,2013-10-31 22:36:00,
2013-10-31 17:41:00,40.5,29.2,29.44,West,260,9.2,9.2,64,0.00,OVC,,0.04,WeatherDisplay:10.37,2013-10-31 22:41:00,
2013-10-31 17:46:00,40.5,28.8,29.44,WNW,285,9.2,9.2,63,0.00,OVC,,0.04,WeatherDisplay:10.37,2013-10-31 22:46:00,
2013-10-31 17:51:00,40.5,28.8,29.44,WSW,255,5.8,8.9,63,0.00,OVC,,0.04,WeatherDisplay:10.37,2013-10-31 22:51:00,
2013-10-31 17:56:00,40.5,28.5,29.44,WSW,250,5.8,8.7,62,0.00,OVC,,0.04,WeatherDisplay:10.37,2013-10-31 22:56:00,
2013-10-31 18:01:00,40.5,28.5,29.44,WSW,250,12.7,12.7,62,0.00,OVC,,0.04,WeatherDisplay:10.37,2013-10-31 23:01:00,
2013-10-31 18:06:00,40.5,28.5,29.44,WSW,250,10.4,10.4,62,0.00,OVC,,0.04,WeatherDisplay:10.37,2013-10-31 23:06:00,
2013-10-31 18:11:00,40.3,28.3,29.44,WSW,250,10.4,10.4,62,0.00,OVC,,0.04,WeatherDisplay:10.37,2013-10-31 23:11:00,
2013-10-31 18:16:00,40.3,27.9,29.44,West,260,11.5,11.5,61,0.00,OVC,,0.04,WeatherDisplay:10.37,2013-10-31 23:16:00,
2013-10-31 18:21:00,40.3,27.9,29.44,WSW,245,8.1,10.8,61,0.00,OVC,,0.04,WeatherDisplay:10.37,2013-10-31 23:21:00,
2013-10-31 18:26:00,40.5,28.5,29.44,West,275,9.2,9.8,62,0.00,OVC,,0.04,WeatherDisplay:10.37,2013-10-31 23:26:00,
2013-10-31 18:31:00,40.5,28.5,29.44,WSW,255,6.9,9.0,62,0.00,OVC,,0.04,WeatherDisplay:10.37,2013-10-31 23:31:00,
2013-10-31 18:36:00,40.5,28.5,29.44,WSW,245,8.1,8.5,62,0.00,OVC,,0.04,WeatherDisplay:10.37,2013-10-31 23:36:00,
2013-10-31 18:41:00,40.5,28.5,29.44,SW,230,8.1,8.1,62,0.00,OVC,,0.04,WeatherDisplay:10.37,2013-10-31 23:41:00,
2013-10-31 18:46:00,40.3,28.3,29.44,West,265,8.1,8.1,62,0.00,OVC,,0.04,WeatherDisplay:10.37,2013-10-31 23:46:00,
2013-10-31 18:52:00,40.1,28.1,29.44,WSW,245,8.1,8.1,62,0.00,OVC,,0.04,WeatherDisplay:10.37,2013-10-31 23:52:00,
2013-10-31 18:57:00,40.1,28.1,29.44,WSW,250,8.1,8.1,62,0.00,OVC,,0.04,WeatherDisplay:10.37,2013-10-31 23:57:00,
2013-10-31 19:02:00,40.1,28.1,29.44,WSW,240,9.2,9.2,62,0.00,OVC,,0.04,WeatherDisplay:10.37,2013-11-01 00:02:00,
2013-10-31 19:07:00,40.1,28.5,29.44,WSW,255,6.9,7.6,63,0.00,OVC,,0.04,WeatherDisplay:10.37,2013-11-01 00:07:00,
2013-10-31 19:12:00,40.1,28.5,29.44,West,275,8.1,8.1,63,0.00,OVC,,0.04,WeatherDisplay:10.37,2013-11-01 00:12:00,
2013-10-31 19:17:00,40.1,28.5,29.44,West,260,8.1,8.1,63,0.00,OVC,,0.04,WeatherDisplay:10.37,2013-11-01 00:17:00,
2013-10-31 19:22:00,40.1,28.9,29.44,West,275,5.8,7.0,64,0.00,OVC,,0.04,WeatherDisplay:10.37,2013-11-01 00:22:00,
2013-10-31 19:27:00,39.9,28.7,29.44,WSW,250,8.1,8.1,64,0.00,OVC,,0.04,WeatherDisplay:10.37,2013-11-01 00:27:00,
2013-10-31 19:32:00,39.9,29.1,29.44,SSW,210,10.4,10.4,65,0.00,OVC,,0.04,WeatherDisplay:10.37,2013-11-01 00:32:00,
2013-10-31 19:37:00,40.1,29.3,29.44,WSW,240,10.4,10.4,65,0.00,OVC,,0.04,WeatherDisplay:10.37,2013-11-01 00:37:00,
2013-10-31 19:42:00,39.9,29.5,29.44,WSW,240,10.4,10.4,66,0.00,OVC,,0.04,WeatherDisplay:10.37,2013-11-01 00:42:00,
2013-10-31 19:47:00,39.9,29.5,29.44,WSW,240,4.6,9.4,66,0.00,OVC,,0.04,WeatherDisplay:10.37,2013-11-01 00:47:00,
2013-10-31 19:52:00,39.9,29.5,29.44,WSW,245,6.9,7.9,66,0.00,OVC,,0.04,WeatherDisplay:10.37,2013-11-01 00:52:00,
2013-10-31 19:57:00,39.9,29.8,29.44,WSW,240,5.8,6.7,67,0.00,OVC,,0.04,WeatherDisplay:10.37,2013-11-01 00:57:00,
2013-10-31 20:02:00,40.1,30.0,29.44,West,265,6.9,6.9,67,0.00,OVC,,0.04,WeatherDisplay:10.37,2013-11-01 01:02:00,
2013-10-31 20:07:00,39.9,30.2,29.44,WSW,250,8.1,8.1,68,0.00,OVC,,0.04,WeatherDisplay:10.37,2013-11-01 01:07:00,
2013-10-31 20:12:00,39.9,30.2,29.44,WSW,245,6.9,7.1,68,0.00,OVC,,0.04,WeatherDisplay:10.37,2013-11-01 01:12:00,
2013-10-31 20:17:00,39.9,30.2,29.44,WSW,255,9.2,9.2,68,0.00,OVC,,0.04,WeatherDisplay:10.37,2013-11-01 01:17:00,
2013-10-31 20:22:00,39.9,30.6,29.44,WSW,245,8.1,8.1,69,0.00,OVC,,0.04,WeatherDisplay:10.37,2013-11-01 01:22:00,
2013-10-31 20:27:00,40.1,30.7,29.44,WSW,250,8.1,8.1,69,0.00,OVC,,0.04,WeatherDisplay:10.37,2013-11-01 01:27:00,
2013-10-31 20:32:00,39.9,30.9,29.44,WSW,255,5.8,7.9,70,0.00,OVC,,0.04,WeatherDisplay:10.37,2013-11-01 01:32:00,
2013-10-31 20:38:00,39.9,30.9,29.44,SW,230,4.6,7.6,70,0.00,OVC,,0.04,WeatherDisplay:10.37,2013-11-01 01:38:00,
2013-10-31 20:43:00,39.9,30.9,29.44,SW,230,6.9,6.9,70,0.00,OVC,,0.04,WeatherDisplay:10.37,2013-11-01 01:43:00,
2013-10-31 20:48:00,40.1,31.4,29.44,WSW,250,5.8,6.4,71,0.00,OVC,,0.04,WeatherDisplay:10.37,2013-11-01 01:48:00,
2013-10-31 20:53:00,40.1,31.4,29.44,WSW,250,9.2,9.2,71,0.00,OVC,,0.04,WeatherDisplay:10.37,2013-11-01 01:53:00,
2013-10-31 20:58:00,39.9,31.3,29.44,WSW,255,5.8,6.6,71,0.00,OVC,,0.04,WeatherDisplay:10.37,2013-11-01 01:58:00,
2013-10-31 21:03:00,39.9,31.6,29.44,SW,230,8.1,8.1,72,0.00,OVC,,0.04,WeatherDisplay:10.37,2013-11-01 02:03:00,
2013-10-31 21:08:00,40.1,31.8,29.44,WSW,255,6.9,7.0,72,0.00,OVC,,0.04,WeatherDisplay:10.37,2013-11-01 02:08:00,
2013-10-31 21:13:00,39.9,32.0,29.44,SW,230,9.2,9.2,73,0.00,OVC,,0.04,WeatherDisplay:10.37,2013-11-01 02:13:00,
2013-10-31 21:18:00,39.9,32.0,29.41,WSW,245,10.4,10.4,73,0.00,OVC,,0.04,WeatherDisplay:10.37,2013-11-01 02:18:00,
2013-10-31 21:23:00,39.9,32.0,29.44,West,265,6.9,8.7,73,0.00,OVC,,0.04,WeatherDisplay:10.37,2013-11-01 02:23:00,
2013-10-31 21:28:00,39.9,32.0,29.44,WSW,240,9.2,9.2,73,0.00,OVC,,0.04,WeatherDisplay:10.37,2013-11-01 02:28:00,
2013-10-31 21:33:00,39.9,32.0,29.44,WSW,240,8.1,8.8,73,0.00,OVC,,0.04,WeatherDisplay:10.37,2013-11-01 02:33:00,
2013-10-31 21:38:00,39.9,32.0,29.44,WSW,240,8.1,8.5,73,0.00,OVC,,0.04,WeatherDisplay:10.37,2013-11-01 02:38:00,
2013-10-31 21:43:00,39.9,32.0,29.44,WSW,240,6.9,8.1,73,0.00,OVC,,0.04,WeatherDisplay:10.37,2013-11-01 02:43:00,
2013-10-31 21:48:00,39.9,32.6,29.44,West,275,8.1,8.1,75,0.00,OVC,,0.04,WeatherDisplay:10.37,2013-11-01 02:48:00,
2013-10-31 21:54:00,39.9,32.6,29.44,West,275,5.8,8.0,75,0.00,OVC,,0.04,WeatherDisplay:10.37,2013-11-01 02:54:00,
2013-10-31 21:59:00,39.9,33.0,29.44,West,260,8.1,8.1,76,0.00,OVC,,0.04,WeatherDisplay:10.37,2013-11-01 02:59:00,
2013-10-31 22:04:00,39.9,33.0,29.44,WSW,240,8.1,8.1,76,0.00,OVC,,0.04,WeatherDisplay:10.37,2013-11-01 03:04:00,
2013-10-31 22:09:00,39.9,33.3,29.44,WSW,255,5.8,6.7,77,0.00,OVC,,0.04,WeatherDisplay:10.37,2013-11-01 03:09:00,
2013-10-31 22:14:00,39.9,33.3,29.44,West,260,6.9,6.9,77,0.00,OVC,,0.04,WeatherDisplay:10.37,2013-11-01 03:14:00,
2013-10-31 22:19:00,39.9,33.3,29.44,West,265,6.9,6.9,77,0.00,OVC,,0.04,WeatherDisplay:10.37,2013-11-01 03:19:00,
2013-10-31 22:24:00,39.9,33.3,29.44,West,265,6.9,6.9,77,0.00,OVC,,0.04,WeatherDisplay:10.37,2013-11-01 03:24:00,
2013-10-31 22:29:00,39.9,33.6,29.44,West,260,5.8,6.7,78,0.00,OVC,,0.04,WeatherDisplay:10.37,2013-11-01 03:29:00,
2013-10-31 22:34:00,39.9,33.6,29.44,WSW,240,9.2,9.2,78,0.00,OVC,,0.04,WeatherDisplay:10.37,2013-11-01 03:34:00,
2013-10-31 22:39:00,39.9,33.6,29.44,West,275,9.2,9.2,78,0.00,OVC,,0.04,WeatherDisplay:10.37,2013-11-01 03:39:00,
2013-10-31 22:44:00,39.9,33.6,29.44,West,265,6.9,7.9,78,0.00,OVC,,0.04,WeatherDisplay:10.37,2013-11-01 03:44:00,
2013-10-31 22:49:00,39.9,33.6,29.44,West,265,8.1,8.3,78,0.00,OVC,,0.04,WeatherDisplay:10.37,2013-11-01 03:49:00,
2013-10-31 22:54:00,39.9,33.6,29.44,West,280,6.9,7.6,78,0.00,OVC,,0.04,WeatherDisplay:10.37,2013-11-01 03:54:00,
2013-10-31 22:59:00,39.7,33.4,29.44,West,275,6.9,6.9,78,0.00,OVC,,0.04,WeatherDisplay:10.37,2013-11-01 03:59:00,
2013-10-31 23:01:00,39.7,33.4,29.44,West,270,8.1,8.1,78,0.00,OVC,,0.04,WeatherDisplay:10.37,2013-11-01 04:01:00,
2013-10-31 23:02:00,39.7,33.4,29.44,West,270,8.1,8.1,78,0.00,OVC,,0.04,WeatherDisplay:10.37,2013-11-01 04:02:00,
2013-10-31 23:03:00,39.7,33.4,29.44,West,270,8.1,8.1,78,0.00,OVC,,0.04,WeatherDisplay:10.37,2013-11-01 04:03:00,
2013-10-31 23:08:00,39.7,33.4,29.44,West,260,8.1,8.1,78,0.00,OVC,,0.04,WeatherDisplay:10.37,2013-11-01 04:08:00,
2013-10-31 23:13:00,39.9,33.6,29.44,West,275,11.5,11.5,78,0.00,OVC,,0.04,WeatherDisplay:10.37,2013-11-01 04:13:00,
2013-10-31 23:18:00,39.9,33.6,29.44,West,280,6.9,8.3,78,0.00,OVC,,0.04,WeatherDisplay:10.37,2013-11-01 04:18:00,
2013-10-31 23:23:00,39.9,33.3,29.44,West,275,8.1,8.2,77,0.00,OVC,,0.04,WeatherDisplay:10.37,2013-11-01 04:23:00,
2013-10-31 23:28:00,39.9,33.3,29.44,West,275,6.9,9.5,77,0.00,OVC,,0.04,WeatherDisplay:10.37,2013-11-01 04:28:00,
2013-10-31 23:33:00,39.9,33.0,29.44,WNW,285,5.8,8.1,76,0.00,OVC,,0.04,WeatherDisplay:10.37,2013-11-01 04:33:00,
2013-10-31 23:38:00,39.9,33.0,29.44,WNW,290,9.2,9.2,76,0.00,OVC,,0.04,WeatherDisplay:10.37,2013-11-01 04:38:00,
2013-10-31 23:43:00,39.9,32.6,29.44,WNW,290,10.4,10.4,75,0.00,OVC,,0.04,WeatherDisplay:10.37,2013-11-01 04:43:00,
2013-10-31 23:48:00,39.9,32.6,29.44,WNW,290,8.1,8.1,75,0.00,OVC,,0.00,WeatherDisplay:10.37,2013-11-01 04:48:00,
2013-10-31 23:53:00,39.9,32.3,29.44,West,280,9.2,9.2,74,0.00,OVC,,0.00,WeatherDisplay:10.37,2013-11-01 04:53:00,
2013-10-31 23:59:00,40.1,32.5,29.44,West,275,10.4,10.4,74,0.00,OVC,,0.00,WeatherDisplay:10.37,2013-11-01 04:59:00,